Wind_Speed
24 25 24 23 18 20 20 30 39 35 31 26 18 24 29 30 35 40 48 54 55 58 55 54 53 52 56 61 61 59 54 52 57 62 65 68 65 68 69 69 69 69 67 65 62
20 20 20 19 17 13 13 29 38 29 19 17 15 20 30 34 35 36 42 41 51 55 57 58 57 64 64 63 64 62 58 58 60 62 64 69 69 71 70 71 73 75 74 70 69
16 16 16 15 14 9 12 30 35 28 26 17 14 16 19 22 23 26 28 35 37 39 47 50 54 58 60 63 65 63 63 65 65 64 65 68 73 73 74 73 75 77 77 76 74
12 12 12 12 11 10 13 30 27 29 29 25 25 19 21 24 24 28 30 32 34 37 43 48 52 56 59 61 64 69 68 66 69 72 70 70 72 74 75 75 77 78 81 80 77
9 10 11 10 10 9 12 22 27 30 31 30 29 31 29 29 35 38 41 44 46 49 50 50 54 59 61 63 66 68 69 69 70 72 75 77 77 77 78 80 80 81 81 85 84
8 7 6 6 6 7 8 12 24 24 26 28 29 30 36 37 29 32 36 38 40 43 47 51 53 56 58 64 66 70 72 75 76 80 81 81 82 82 83 85 83 84 85 87 88
8 7 6 6 5 4 2 5 9 14 18 20 21 22 25 29 31 35 39 41 45 48 51 53 56 60 63 65 67 67 68 72 76 79 83 86 85 85 86 87 88 89 89 89 93
9 8 8 9 10 10 10 12 13 15 17 20 23 25 28 30 32 33 34 37 42 45 47 50 54 59 62 65 68 73 76 79 82 84 85 85 83 90 93 93 94 96 97 97 98
13 12 11 11 12 13 15 17 19 20 22 25 27 28 32 34 35 37 40 42 45 48 52 55 59 62 66 69 73 78 77 80 83 91 94 93 86 90 93 97 100 102 103 104 103
18 17 17 18 18 18 21 23 24 24 25 27 29 33 36 40 42 44 46 47 52 56 57 61 64 66 70 73 76 81 83 86 89 96 100 97 91 93 99 102 103 103 105 107 107
21 19 20 20 22 24 25 25 26 27 30 32 36 39 41 43 44 49 51 55 60 64 67 69 71 71 75 79 82 85 88 91 95 98 102 105 99 98 106 107 109 110 111 110 110
25 25 25 27 28 28 28 27 28 31 33 35 40 43 45 45 47 52 57 62 66 70 73 77 78 79 82 85 89 92 93 97 97 105 107 109 105 106 113 115 119 118 115 115 111
24 26 28 29 29 29 30 32 35 37 39 42 45 48 51 53 54 58 62 68 72 76 78 82 84 85 88 94 95 99 101 102 101 109 111 113 109 115 119 124 126 125 124 122 119
27 28 29 29 30 32 35 37 38 40 42 45 48 52 56 59 61 63 67 71 75 78 82 86 89 91 95 100 103 104 104 103 103 105 109 109 101 109 119 124 129 130 128 128 131
31 31 33 34 35 36 37 39 41 43 46 49 52 55 58 63 68 70 73 78 78 81 81 86 86 89 92 94 95 91 90 89 90 88 91 96 95 97 105 115 123 128 129 130 132
34 36 36 37 39 41 43 45 48 51 53 56 59 62 65 68 73 76 77 78 81 86 86 86 88 85 83 81 80 76 73 72 71 74 71 79 78 75 87 94 101 105 112 120 129
37 39 41 43 44 44 48 50 53 55 57 60 63 65 68 73 73 77 81 87 84 84 85 83 81 75 65 58 61 60 63 53 43 48 54 51 51 50 62 70 76 81 90 97 104
39 41 44 46 49 51 53 56 58 61 63 63 66 68 68 72 77 84 80 82 82 81 71 68 72 65 48 45 45 47 51 43 31 36 44 50 53 56 57 58 63 61 62 72 83
45 47 50 52 55 58 60 61 64 67 68 68 71 73 75 77 86 88 84 80 76 69 57 49 58 62 43 36 35 35 40 42 36 36 40 41 44 48 57 64 61 59 48 56 67
51 53 56 59 61 62 64 67 68 69 71 72 73 75 81 88 91 90 78 71 67 60 51 43 45 58 50 36 30 32 37 37 40 36 34 36 35 37 47 55 57 63 62 51 50
58 60 61 62 65 67 68 70 72 74 76 79 79 82 87 87 90 82 72 64 58 51 46 44 45 51 49 34 34 34 35 37 39 43 35 29 36 47 46 50 52 54 61 59 50
61 62 64 67 71 72 73 75 77 79 81 82 81 88 89 83 76 72 62 60 52 46 43 44 41 42 43 31 33 37 38 44 46 45 43 36 35 50 53 52 49 51 55 61 44
67 67 71 73 74 76 76 78 79 80 82 89 90 82 80 72 64 59 54 55 50 45 40 42 40 37 38 30 33 40 45 51 51 46 44 44 46 58 57 51 54 48 51 52 42
72 73 75 76 79 81 82 83 82 82 84 85 78 71 66 63 59 49 50 46 45 42 41 37 38 34 29 26 30 39 45 48 48 44 46 56 54 65 57 51 50 44 39 40 43
74 78 77 78 78 83 84 82 81 85 81 72 67 58 51 49 43 46 51 47 47 41 38 38 35 30 27 22 32 36 39 43 48 53 55 63 65 60 50 42 40 35 31 31 31
79 82 82 88 83 81 79 76 79 73 64 55 48 48 45 42 42 40 41 44 47 44 41 35 35 27 29 24 29 37 40 42 55 56 60 61 57 51 39 35 32 29 27 29 27
84 87 89 84 77 72 75 71 62 53 53 47 43 46 49 48 47 46 44 46 42 42 40 34 31 24 31 27 33 39 43 49 58 55 58 52 46 43 40 33 27 24 23 17 18
Wind_Direction
49 51 65 70 73 74 113 134 133 140 166 176 190 195 208 214 220 224 224 231 232 236 240 245 243 248 245 248 250 248 247 248 247 248 251 256 256 256 254 251 253 252 248 248 248
48 55 59 77 84 103 120 149 157 156 164 192 209 224 228 228 233 239 236 239 239 241 240 246 250 250 248 249 250 252 254 251 251 251 252 254 255 255 255 255 253 254 255 251 249
48 57 68 70 86 124 155 166 167 171 183 198 214 215 215 224 234 236 244 251 253 254 255 259 258 257 258 259 258 259 258 256 256 255 255 256 258 259 261 259 258 257 255 255 253
57 62 66 80 95 116 165 170 182 195 202 209 222 234 242 261 261 267 267 265 259 258 260 263 263 262 263 262 261 261 261 261 260 259 259 256 257 258 258 259 259 258 259 256 254
52 68 81 84 95 122 169 198 203 207 217 225 232 247 252 265 271 269 271 268 267 265 267 265 267 266 264 263 262 261 261 259 256 254 253 252 253 255 258 258 259 260 259 260 257
33 36 45 62 102 128 147 187 220 222 235 237 256 259 257 261 264 264 264 264 264 263 263 262 262 263 262 262 261 260 259 259 257 254 253 252 251 252 255 257 257 257 258 260 262
25 17 6 354 345 341 283 237 216 214 225 235 249 254 254 258 261 262 262 263 262 262 263 264 265 265 266 266 265 265 264 262 261 259 255 252 253 253 253 255 257 257 257 258 260
343 335 329 317 310 305 298 290 275 265 255 256 263 264 270 270 270 271 273 272 272 270 270 270 269 268 267 268 268 265 264 264 264 262 259 255 252 252 251 251 253 256 256 254 258
311 309 307 305 304 300 291 283 279 272 265 267 274 274 276 275 276 278 277 276 276 277 276 275 274 274 272 270 269 268 266 264 262 263 261 259 255 255 254 252 252 254 256 258 257
297 296 293 294 292 285 281 280 279 278 273 274 278 278 277 278 279 282 280 280 281 281 281 281 279 279 277 275 272 270 268 265 262 262 264 263 261 258 257 256 255 253 254 255 256
289 290 290 289 289 287 282 277 275 275 276 277 278 280 282 282 282 280 281 281 280 280 280 279 278 277 277 276 274 272 271 269 267 265 264 264 262 259 258 257 256 254 252 252 254
286 287 286 287 287 289 288 280 278 278 279 280 281 283 284 282 282 283 285 286 285 283 283 282 280 280 280 277 275 272 270 270 269 266 266 264 263 259 259 258 256 255 256 254 254
290 288 287 288 289 289 285 285 286 287 287 286 285 285 285 284 285 286 288 289 288 287 285 285 284 283 283 280 278 277 275 274 270 269 266 262 261 261 259 256 256 255 254 255 254
293 294 292 290 289 287 287 289 289 289 289 289 290 291 292 291 291 291 291 290 291 291 290 289 287 284 281 279 278 278 277 274 273 270 267 267 261 259 256 256 255 255 255 253 252
293 295 295 293 291 290 291 291 290 290 289 289 289 289 291 293 294 293 293 292 290 289 290 290 288 284 283 281 281 279 276 275 275 273 271 269 267 264 258 257 256 254 252 253 253
291 294 293 292 292 292 293 292 292 291 292 291 292 291 292 293 294 294 295 292 293 294 293 293 291 289 289 284 282 278 276 274 274 273 272 272 270 269 263 260 260 257 255 255 254
292 294 294 295 294 293 292 291 293 295 294 293 292 293 294 296 297 300 298 296 292 296 298 296 293 292 288 283 279 277 274 272 281 287 289 283 280 273 275 272 260 258 259 258 254
293 295 296 297 296 294 293 294 295 295 296 297 298 299 298 298 301 303 303 300 299 300 301 299 295 292 287 283 279 277 278 278 269 283 291 290 287 287 283 279 276 269 261 259 257
297 297 297 297 298 297 298 297 298 299 301 304 304 306 308 307 308 308 307 304 304 304 301 297 298 296 297 285 270 264 274 283 293 297 293 283 281 286 288 283 283 281 264 259 261
297 297 298 298 299 299 300 300 302 304 306 306 308 307 308 311 311 310 307 306 307 307 304 302 302 300 304 296 272 264 268 284 297 299 292 290 292 292 291 288 285 285 281 273 267
298 299 299 299 301 302 303 304 305 305 308 308 309 309 310 311 311 309 309 311 308 306 306 303 303 298 302 303 293 291 291 298 300 302 299 293 316 307 300 300 296 289 282 278 275
299 300 302 302 303 303 304 305 305 305 307 306 308 309 309 310 308 308 310 308 308 305 305 304 301 301 297 299 292 293 298 306 309 310 306 303 317 310 305 299 296 287 281 280 271
301 301 302 302 303 303 304 305 306 306 307 307 308 307 308 310 307 306 303 303 308 308 310 306 302 303 294 296 296 299 304 304 304 308 313 315 315 310 303 300 293 282 278 275 264
300 301 302 303 303 304 303 304 305 306 307 308 307 308 308 307 307 306 301 305 308 308 311 307 302 303 291 287 289 294 299 299 304 313 321 318 316 307 303 297 289 285 275 270 261
303 302 303 304 303 306 302 302 305 307 308 309 309 310 311 311 310 308 309 313 310 312 313 307 306 301 290 290 298 296 298 302 311 317 326 322 313 309 306 298 291 288 281 263 261
304 305 302 304 304 302 303 303 305 306 308 311 311 314 317 315 312 302 311 308 304 309 314 309 310 298 286 293 296 301 304 309 310 322 324 323 316 314 311 305 293 284 268 255 252
304 303 302 302 302 302 304 306 307 310 311 311 312 314 316 315 313 310 311 306 306 307 311 309 309 289 281 296 301 305 308 312 311 326 326 325 318 316 317 314 299 298 287 266 255
Height
10797 10794 10792 10790 10790 10790 10791 10795 10800 10807 10813 10819 10826 10830 10834 10838 10843 10847 10852 10856 10858 10862 10865 10866 10868 10869 10871 10873 10876 10879 10884 10886 10885 10879 10877 10874 10882 10885 10890 10893 10894 10893 10901 10905 10910
10802 10801 10799 10798 10798 10800 10801 10803 10806 10812 10819 10824 10828 10831 10835 10840 10844 10847 10851 10853 10854 10858 10860 10861 10862 10863 10864 10865 10867 10869 10873 10875 10874 10873 10872 10868 10868 10866 10875 10878 10881 10881 10884 10893 10898
10807 10806 10805 10804 10804 10805 10807 10810 10813 10816 10820 10824 10828 10832 10836 10840 10843 10845 10847 10848 10850 10851 10853 10853 10853 10853 10855 10856 10859 10861 10861 10861 10864 10864 10864 10861 10856 10858 10859 10863 10865 10867 10871 10876 10882
10810 10810 10810 10810 10810 10810 10812 10816 10817 10819 10821 10824 10827 10831 10833 10834 10837 10838 10838 10840 10842 10842 10843 10843 10842 10842 10844 10844 10847 10848 10848 10851 10852 10852 10851 10849 10845 10845 10845 10849 10848 10851 10852 10862 10870
10811 10812 10813 10813 10813 10814 10816 10818 10819 10821 10823 10825 10826 10827 10829 10831 10832 10832 10832 10833 10833 10833 10833 10833 10833 10831 10832 10832 10831 10832 10833 10836 10837 10836 10833 10834 10835 10831 10834 10833 10833 10833 10835 10833 10848
10813 10813 10813 10814 10815 10816 10817 10818 10820 10822 10823 10824 10824 10824 10825 10827 10826 10825 10823 10823 10824 10823 10822 10822 10821 10818 10818 10815 10817 10817 10819 10818 10817 10814 10817 10820 10822 10825 10818 10814 10819 10818 10817 10816 10816
10814 10814 10814 10814 10814 10815 10817 10818 10819 10820 10821 10821 10821 10821 10821 10821 10820 10818 10817 10817 10814 10813 10812 10811 10809 10805 10804 10801 10801 10802 10803 10799 10796 10797 10798 10802 10805 10804 10804 10801 10800 10800 10800 10801 10794
10816 10815 10814 10814 10813 10813 10813 10813 10813 10814 10814 10814 10813 10813 10812 10811 10810 10809 10809 10806 10804 10802 10801 10800 10797 10793 10791 10788 10787 10785 10785 10782 10776 10772 10772 10776 10789 10783 10783 10783 10781 10777 10777 10782 10780
10814 10813 10813 10812 10812 10811 10810 10808 10807 10807 10807 10807 10806 10804 10802 10801 10801 10800 10798 10794 10791 10788 10786 10784 10780 10778 10775 10772 10768 10764 10768 10763 10760 10746 10744 10749 10770 10765 10760 10760 10762 10759 10758 10758 10763
10811 10810 10809 10808 10807 10807 10806 10805 10802 10802 10801 10800 10798 10795 10793 10792 10791 10788 10784 10783 10777 10773 10771 10766 10762 10759 10754 10751 10748 10742 10741 10741 10739 10724 10716 10728 10746 10745 10738 10734 10737 10740 10738 10735 10738
10806 10805 10804 10802 10801 10801 10800 10799 10797 10795 10794 10793 10789 10786 10784 10782 10781 10775 10771 10767 10761 10756 10753 10749 10745 10743 10735 10729 10723 10718 10715 10713 10706 10702 10695 10698 10713 10723 10706 10704 10702 10702 10704 10714 10719
10801 10800 10798 10796 10794 10793 10791 10791 10790 10787 10785 10783 10779 10775 10773 10772 10769 10762 10757 10750 10744 10738 10733 10727 10723 10720 10713 10704 10696 10690 10689 10681 10685 10670 10668 10667 10681 10686 10676 10675 10665 10672 10682 10685 10699
10796 10793 10792 10790 10788 10787 10785 10783 10781 10778 10775 10771 10767 10762 10758 10756 10755 10749 10743 10733 10726 10717 10711 10702 10697 10692 10686 10672 10664 10657 10654 10650 10650 10635 10634 10633 10651 10641 10640 10629 10631 10639 10649 10659 10667
10789 10788 10785 10783 10782 10779 10777 10774 10771 10768 10765 10761 10756 10749 10744 10739 10736 10730 10720 10714 10704 10697 10689 10677 10670 10665 10655 10642 10630 10624 10615 10613 10607 10600 10593 10590 10609 10605 10594 10596 10594 10600 10613 10620 10624
10782 10781 10778 10775 10773 10770 10767 10764 10761 10757 10753 10749 10742 10738 10733 10722 10713 10711 10704 10689 10684 10673 10667 10650 10643 10634 10622 10609 10598 10593 10586 10578 10567 10564 10561 10555 10564 10558 10559 10549 10551 10563 10572 10582 10588
10775 10772 10770 10767 10764 10761 10757 10753 10749 10744 10740 10735 10728 10721 10714 10707 10697 10686 10676 10666 10656 10646 10635 10623 10606 10602 10596 10581 10570 10561 10559 10553 10548 10540 10537 10532 10536 10525 10522 10519 10518 10531 10540 10548 10553
10765 10762 10759 10756 10753 10750 10744 10740 10735 10730 10724 10718 10711 10703 10696 10684 10676 10666 10655 10635 10635 10626 10609 10590 10579 10577 10570 10561 10547 10540 10536 10538 10533 10522 10517 10517 10513 10508 10498 10493 10497 10502 10505 10510 10510
10756 10753 10749 10745 10740 10736 10731 10725 10719 10713 10706 10701 10692 10685 10675 10667 10652 10640 10632 10617 10605 10600 10588 10567 10540 10550 10554 10545 10531 10518 10517 10518 10524 10517 10512 10502 10498 10491 10483 10477 10471 10479 10483 10479 10477
10745 10741 10736 10730 10725 10720 10716 10710 10703 10697 10690 10683 10674 10664 10652 10641 10628 10617 10609 10594 10583 10574 10566 10557 10531 10521 10534 10530 10521 10512 10507 10504 10506 10503 10500 10492 10484 10477 10463 10455 10455 10453 10459 10457 10451
10732 10729 10722 10717 10711 10705 10699 10693 10686 10678 10671 10663 10656 10645 10634 10619 10603 10594 10586 10576 10564 10551 10542 10538 10531 10507 10510 10513 10508 10502 10497 10495 10491 10491 10489 10480 10475 10466 10454 10445 10440 10432 10433 10435 10434
10719 10714 10709 10703 10697 10691 10684 10677 10669 10662 10653 10643 10636 10625 10611 10604 10580 10566 10560 10555 10547 10538 10529 10522 10516 10502 10497 10499 10491 10488 10485 10484 10479 10474 10471 10472 10461 10447 10441 10432 10425 10420 10413 10413 10415
10705 10699 10694 10688 10682 10675 10668 10661 10652 10643 10635 10624 10619 10605 10590 10583 10570 10551 10544 10537 10532 10526 10517 10508 10505 10498 10488 10489 10484 10479 10475 10470 10463 10460 10453 10453 10451 10431 10423 10416 10412 10405 10397 10391 10395
10687 10685 10678 10671 10665 10657 10652 10643 10634 10625 10616 10603 10595 10587 10571 10561 10556 10541 10531 10522 10519 10512 10507 10497 10493 10490 10479 10479 10476 10469 10463 10459 10453 10447 10443 10434 10429 10411 10404 10400 10388 10385 10380 10377 10378
10670 10665 10662 10655 10646 10638 10629 10623 10616 10607 10598 10584 10572 10567 10557 10542 10532 10530 10519 10515 10509 10503 10496 10489 10483 10480 10476 10473 10471 10464 10457 10450 10441 10436 10433 10415 10414 10393 10386 10377 10368 10364 10365 10362 10362
10652 10644 10640 10637 10631 10622 10612 10603 10596 10585 10574 10569 10550 10546 10543 10533 10526 10514 10503 10502 10494 10493 10489 10481 10474 10471 10466 10466 10461 10457 10452 10442 10431 10423 10413 10409 10389 10378 10368 10362 10355 10353 10351 10350 10350
10636 10626 10617 10612 10607 10599 10593 10586 10578 10568 10563 10554 10542 10532 10528 10522 10517 10512 10503 10494 10487 10483 10478 10472 10466 10462 10456 10458 10454 10448 10441 10434 10421 10415 10407 10391 10377 10362 10356 10351 10344 10340 10337 10337 10340
10616 10607 10596 10588 10585 10579 10570 10565 10560 10554 10542 10543 10535 10526 10517 10511 10504 10498 10492 10485 10481 10475 10470 10465 10460 10456 10449 10450 10445 10439 10434 10426 10412 10406 10393 10381 10366 10354 10346 10341 10335 10334 10334 10335 10336